User: anonymous   Login
Location: Stonelick Lake State Park
(39.2170°N, 84.0850°W)
Time: 03:04:50
(UTC-04:00)
Language:

Lacrosse 5 - Orbit

View from above orbital plane
View from above orbital plane
View from above satellite
View from above satellite

Ground track
Ground track

The orbit data is extracted from the following two-line orbital elements,

1 28646U 05016A   17173.92229435 0.00000000  00000-0  00000-0 0    06
2 28646  57.0130 104.9591 0005000 135.5489 224.4511 14.51919432    01
Epoch (UTC): 22 June 2017 22:08:06
Eccentricity: 0.0005000
inclination: 57.0130°
perigee height: 716 km
apogee height: 723 km
right ascension of ascending node: 104.9591°
argument of perigee: 135.5489°
revolutions per day: 14.51919432
mean anomaly at epoch: 224.4511°
orbit number at epoch: 0

The dashed part of the orbit path shows where the satellite is in the earth's shadow,  

DLR